Regional Weather Roundup
Issued by NWS

Home | Current Version | Previous Version | Graphics & Text | Print | Product List | Glossary On
Versions: 1 2 3 4 5 6 7 8 9 10 11 12 13 14 15 16 17 18 19 20 21 22 23 24 25 26 27 28 29 30 31 32 33 34 35 36 37 38 39 40 41 42 43 44 45 46 47 48 49 50
517
ASUS43 KMKX 291800
RWRWI

WISCONSIN REGIONAL WEATHER ROUNDUP
NATIONAL WEATHER SERVICE MILWAUKEE/SULLIVAN WI
100 PM CDT SUN MAY 29 2016

NOTE: "FAIR" INDICATES FEW OR NO CLOUDS BELOW 12,000 FEET WITH NO
SIGNIFICANT WEATHER AND/OR OBSTRUCTIONS TO VISIBILITY.

WIZ001-002-006>008-014>016-023>028-291900-
NORTHWEST WISCONSIN

CITY           SKY/WX    TMP DP  RH WIND       PRES   REMARKS
SUPERIOR ARPT  CLOUDY    65  58  78 W12G21    29.86R
ASHLAND        CLOUDY    66  57  72 W12G23    29.84R
6HR MIN TEMP:  57; 6HR MAX TEMP:  69; 6HR PCP:  0.01;

HAYWARD        CLOUDY    63  59  87 VRB7      29.89R
6HR MIN TEMP:  59; 6HR MAX TEMP:  64; 6HR PCP:  0.01;

SIREN          CLOUDY    69  54  60 NW16G25   29.91R
CUMBERLAND     PTSUNNY   68  59  73 W17       29.93R
RICE LAKE      CLOUDY    66  58  76 W13       29.94R
CHETEK         CLOUDY    68  61  77 W12G18    29.92R
LADYSMITH      CLOUDY    66  59  78 W15       29.91S
EAU CLAIRE     NOT AVBL
MENOMONIE      PTSUNNY   67  65  91 W14       29.94R
NEW RICHMOND   PTSUNNY   70  57  64 W17       29.95R
OSCEOLA        CLOUDY    71  58  62 W17G24    29.97R
$$

WIZ003>005-009-010-017-018-291900-
NORTH CENTRAL WISCONSIN

CITY           SKY/WX    TMP DP  RH WIND       PRES   REMARKS
MANITOWISH WTR NOT AVBL
ARBOR VITAE    CLOUDY    65  59  79 W8G16     29.87S
WOODRUFF       CLOUDY    65  59  79 W8G16     29.87S
RHINELANDER    CLOUDY    67  56  67 W16       29.88R
6HR MIN TEMP:  61; 6HR MAX TEMP:  69; 6HR PCP: TRACE;

EAGLE RIVER      N/A     67  55  64 W15G21    29.85S
LAND O LAKES   PTSUNNY   66  59  77 W9        29.85S
PHILLIPS       CLOUDY    63  61  91 SW9       29.88R
TOMAHAWK       CLOUDY    67  57  68 W12G17    29.89S
MEDFORD        LGT RAIN  62  61  98 W8        29.90S
MERRILL        CLOUDY   N/A N/A N/A W14       29.90R
$$

WIZ029-030-035-036-043>047-291900-
CENTRAL WISCONSIN

CITY           SKY/WX    TMP DP  RH WIND       PRES   REMARKS
WAUSAU         CLOUDY    72  58  61 W18G31    29.88S
6HR MIN TEMP:  63; 6HR MAX TEMP:  73; 6HR PCP:  0.18;

MOSINEE        PTSUNNY   70  61  73 SW15G21   29.91S
MARSHFIELD     LGT RAIN  68  61  78 W13       29.92R
6HR MIN TEMP:  62; 6HR MAX TEMP:  70; 6HR PCP:  0.10;

STEVENS POINT  CLOUDY    68  57  68 W10G16    29.91S
WAUPACA        PTSUNNY   72  62  71 W13       29.91R
WAUTOMA        CLOUDY    74  59  59 W20G28    29.92F
6HR MIN TEMP:  62; 6HR MAX TEMP:  74; 6HR PCP:  0.09;

WISC RAPIDS    LGT RAIN  69  56  62 W13G23    29.93S
6HR MIN TEMP:  63; 6HR MAX TEMP:  73; 6HR PCP:  0.05;

CAMP DOUGLAS   NOT AVBL
$$

WIZ011>013-019>022-031-037>040-048>050-291900-
NORTHEAST WISCONSIN

CITY           SKY/WX    TMP DP  RH WIND       PRES   REMARKS
ANTIGO         CLOUDY    66  60  81 W14G21    29.88S
SHAWANO        CLOUDY    71  62  74 W12G18    29.88S
OCONTO         CLOUDY   N/A N/A N/A W7        29.86R
STURGEON BAY   NOT AVBL
GREEN BAY      CLOUDY    71  62  73 W15G23    29.89R
6HR MIN TEMP:  66; 6HR MAX TEMP:  72; 6HR PCP:  0.01;

MANITOWOC      NOT AVBL
APPLETON       RAIN      70  59  68 W18       29.90R
CLINTONVILLE   CLOUDY    70  59  68 W14       29.89R
OSHKOSH        PTSUNNY   72  62  71 SW9G20    29.91S
6HR MIN TEMP:  65; 6HR MAX TEMP:  72; 6HR PCP:  0.06;

$$

WIZ032>034-041-042-053>061-291900-
SOUTHWEST WISCONSIN

CITY           SKY/WX    TMP DP  RH WIND       PRES   REMARKS
LA CROSSE      MOSUNNY   77  57  50 W18G25    29.95F
6HR MIN TEMP:  65; 6HR MAX TEMP:  78;

SPARTA         PTSUNNY   72  59  64 W15       29.96S
VIROQUA        PTSUNNY   72  58  59 W15G26    29.99S
BOSCOBEL       PTSUNNY   75  59  57 W9G21     29.99S
6HR MIN TEMP:  65; 6HR MAX TEMP:  78; 6HR PCP: TRACE;

PRAIRIE DU CHI MOSUNNY   76  56  51 W12       30.00S
PLATTEVILLE    PTSUNNY   74  62  66 W15G23    30.02R
$$

WIZ056-057-062-063-064-067-068-291900-
SOUTH CENTRAL WISCONSIN

CITY           SKY/WX    TMP DP  RH WIND       PRES   REMARKS
REEDSBURG      PTSUNNY   73  60  63 W16G23    29.95F
BARABOO/DELLS  PTSUNNY   74  56  53 W14G26    29.95F
LONE ROCK      NOT AVBL
MINERAL POINT  PTSUNNY   73  59  60 W15G25    30.01S
MADISON        PTSUNNY   75  57  53 W9G22     29.96S
6HR MIN TEMP:  65; 6HR MAX TEMP:  75;

MIDDLETON      PTSUNNY   74  60  60 W14G21    29.98S
WATERTOWN      PTSUNNY   73  59  61 W14       29.96S
MONROE         MOSUNNY   73  55  53 W23       30.00S
JANESVILLE     PTSUNNY   77  57  50 W15       29.98F
$$

WIZ051-052-058>065-066-070>072-291900-
SOUTHEAST WISCONSIN

CITY           SKY/WX    TMP DP  RH WIND       PRES   REMARKS
MILWAUKEE      PTSUNNY   75  59  57 SW15G28   29.96F
6HR MIN TEMP:  66; 6HR MAX TEMP:  75;

WAUKESHA       PTSUNNY   72  59  64 W17G25    29.97F
MILWAUKEE/TIMM PTSUNNY   72  57  60 SW14G21   29.96F
RACINE         MOSUNNY   75  59  57 W12G18    29.99S
6HR MIN TEMP:  67; 6HR MAX TEMP:  76; 6HR PCP: TRACE;

BURLINGTON     MOSUNNY   72  60  65 SW12G18   29.99S
KENOSHA        MOSUNNY   75  60  59 W16       29.99S
6HR MIN TEMP:  66; 6HR MAX TEMP:  75;

FOND DU LAC    MOSUNNY   73  64  73 VRB7      29.92F
6HR MIN TEMP:  66; 6HR MAX TEMP:  73; 6HR PCP:  0.06;

SHEBOYGAN      MOSUNNY   74  61  63 SW16      29.91F
6HR MIN TEMP:  65; 6HR MAX TEMP:  75; 6HR PCP: TRACE;

WEST BEND      MOSUNNY   72  61  68 SW15      29.95S
JUNEAU         PTSUNNY   72  60  66 W17G23    29.96S
$$

LSZ147-162-291900-
LAKE SUPERIOR

STATION/POSITION TIME  TEMP    WIND        PRES    WAVE
                       AIR SEA DIR/SP/G            HT/PER
                 (UTC) (F)     (DEG/KT/KT) (MB)    (FT/S)
W MID LAKE BUOY  1650   43 38  200/  6/  8 1009.0S   0
DEVILS ISLAND    1700   53     240/ 20/ 23 1009.1R
PORT WING        1600   63     250/ 12/ 16 1010.2R
SAXON HARBOR     1740   68     290/  6/  9 1009.1F
$$

LMZ867-665-643>646-291900-
LAKE MICHIGAN

STATION/POSITION TIME  TEMP    WIND        PRES    WAVE
                       AIR SEA DIR/SP/G            HT/PER
                 (UTC) (F)     (DEG/KT/KT) (MB)    (FT/S)
CHAMBERS ISLAND  1700   70     170/ 10/ 16 1010.5S
N MID LAKE BUOY  1650   49 47  190/ 14/ 16 1011.2F   2/ 5
NORTHPORT PIER   1700   61     160/  7/ 12 1011.2R
SISTER BAY       1705   66     160/ 10/ 15   N/A
ALGOMA LAKESHORE 1702          230/ 14/ 21   N/A
KEWAUNEE LAKESHO 1700   64     220/ 15/ 21 1011.3R
SHEBOYGAN LAKESH 1700   70     230/ 16/ 18 1013.2F
PORT WASHINGTON  1700   74     220/ 10/ 18 1014.6S
S MID LAKE BUOY  1650   55 50  190/ 10/ 12 1015.2R   1/ 3
KENOSHA   LAKESH 1700   72     260/ 16/ 23 1015.2R
$$

TC  - TEMPERATURE IN CELSIUS
VSB - VISIBILITY IN STATUTE MILES
WCI - WIND CHILL INDEX
HX  - HEAT INDEX





USA.gov is the U.S. government's official web portal to all federal, state and local government web resources and services.